Flag for U.S.A. Weather past 2 weeks in Youngstown, Ohio, U.S.A.

Now
60 °F

Passing clouds.


Feels Like: 60 °F
Forecast: 54 / 74 °F
Wind: 6 mph from North

Location: Youngstown-Warren Regional Airport

Current Time: Aug 28, 2014 at 3:05:14 AM

Latest Report: Aug 28, 2014 at 1:51 AM


Visibility: 10 mi

Pressure: 30.07 "Hg

Humidity: 80%

Dew point: 54 °F

Location of YoungstownLocation

Historic Weather in Youngstown — Graph

°F

Youngstown temperature yesterday

Maximum temperature yesterday: 81 °F (at 1:51 PM)
Minimum temperature yesterday: 63 °F (at 11:51 PM)
Average temperature yesterday: 72 °F

Past Weeks' High & Low Weather Summary

 TemperatureHumidityPressure
High84 °F (Aug 19, 3:51 PM)97% (Aug 17, 6:51 AM)30.16 "Hg (Aug 17, 6:51 AM)
Low48 °F (Aug 15, 5:51 AM)37% (Aug 16, 3:51 PM)29.80 "Hg (Aug 13, 3:51 AM)
Average68 °F76%29.99 "Hg
* Reported Aug 13 2:00 AM — Aug 28 1:51 AM, Youngstown, Weather by CustomWeather, © 2014

Note: Actual official high and low records may vary slightly from our data, if they occured in-between our weather recording intervals... More about our weather records

Advertising

Youngstown weather history for previous 24 hours

 ConditionsComfort  
Time TempWeatherWind HumidityBarometerVisibility
1:51 AM
Aug 28
60 °FPassing clouds.6 mph80%30.07 "Hg10 mi
12:51 AM61 °FPassing clouds.7 mph81%30.08 "Hg10 mi
11:51 PM
Aug 27
63 °FPassing clouds.6 mph81%30.08 "Hg10 mi
10:51 PM64 °FPassing clouds.5 mph84%30.08 "Hg10 mi
9:51 PM65 °FPassing clouds.7 mph81%30.08 "Hg10 mi
8:51 PM66 °FPartly sunny.8 mph78%30.07 "Hg10 mi
7:51 PM69 °FPartly sunny.8 mph73%30.04 "Hg10 mi
6:51 PM73 °FBroken clouds.12 mph69%30.03 "Hg10 mi
5:51 PM75 °FScattered clouds.12 mph66%30.03 "Hg10 mi
4:51 PM77 °FBroken clouds.14 mph66%30.03 "Hg10 mi
3:51 PM78 °FMostly cloudy.14 mph66%30.03 "Hg10 mi
2:51 PM81 °FPartly sunny.7 mph67%30.03 "Hg10 mi
1:51 PM81 °FPartly sunny.3 mph62%30.04 "Hg10 mi
12:51 PM78 °FPartly sunny.7 mph66%30.06 "Hg10 mi
11:51 AM76 °FOvercast.3 mph77%30.07 "Hg7 mi
10:51 AM74 °FFog.5 mph82%30.08 "Hg6 mi
9:51 AM74 °FMostly cloudy.5 mph82%30.07 "Hg7 mi
8:51 AM72 °FMostly cloudy.No wind87%30.08 "Hg7 mi
7:51 AM69 °FFog.No wind93%30.07 "Hg5 mi
6:51 AM67 °FFog.No wind97%30.07 "Hg3 mi
5:51 AM69 °FPassing clouds.3 mph90%30.07 "Hg7 mi
4:51 AM71 °FPartly cloudy.7 mph87%30.06 "Hg9 mi
3:51 AM72 °FMostly cloudy.7 mph84%30.06 "Hg10 mi
Weather by CustomWeather, © 2014

See weather overviewHow to use our weather pages